This is the latest recevied weather packets stored in our database for station/object KB1JDX. If no packets are shown the sender has not sent any weather packets the latest 10 day(s).
| Time | Temp. | Humidity | Pressure | Rain* | Wind** | Luminosity | Snow |
|---|---|---|---|---|---|---|---|
| 1788088338 | 13.89° C | 100% | 1021.5 hPa | 0 mm | 0 m/s | - | - |
| 1788085873 | 13.33° C | 100% | 1021.5 hPa | 0 mm | 0 m/s | - | - |
| 1788084738 | 13.33° C | 100% | 1021.8 hPa | 0 mm | 0 m/s | - | - |
| 1788083540 | 12.78° C | 100% | 1021.7 hPa | 0 mm | 0 m/s | - | - |
| 1788082338 | 12.78° C | 100% | 1021.7 hPa | 0 mm | 0 m/s | - | - |
| 1788082273 | 12.78° C | 100% | 1021.7 hPa | 0 mm | 0 m/s | - | - |
| 1788081138 | 12.78° C | 100% | 1021.7 hPa | 0 mm | 0 m/s | - | - |
| 1788078673 | 13.33° C | 100% | 1021.7 hPa | 0 mm | 0 m/s | - | - |
| 1788076339 | 12.78° C | 100% | 1022.2 hPa | 0 mm | 0 m/s | - | - |
| 1788075073 | 12.78° C | 100% | 1022 hPa | 0 mm | 0 m/s | - | - |
| 1788072738 | 13.33° C | 100% | 1021.9 hPa | 0 mm | 0 m/s | - | - |
| 1788071538 | 13.33° C | 100% | 1021.8 hPa | 0 mm | 0 m/s | - | - |
| 1788071473 | 13.33° C | 100% | 1021.7 hPa | 0 mm | 0 m/s | - | - |
| 1788070338 | 13.33° C | 100% | 1021.7 hPa | 0 mm | 0 m/s | - | - |
| 1788069138 | 13.89° C | 100% | 1021.8 hPa | 0 mm | 0 m/s | - | - |
| 1788067941 | 13.89° C | 100% | 1021.9 hPa | 0 mm | 0 m/s | - | - |
| 1788067873 | 13.89° C | 100% | 1021.9 hPa | 0 mm | 0 m/s | - | - |
| 1788065540 | 13.89° C | 100% | 1021.7 hPa | 0 mm | 0 m/s | - | - |
| 1788064339 | 13.89° C | 100% | 1021.8 hPa | 0 mm | 0 m/s | - | - |
| 1788064273 | 13.89° C | 100% | 1021.7 hPa | 0 mm | 0 m/s | - | - |
| 1788063138 | 13.89° C | 100% | 1021.6 hPa | 0 mm | 0 m/s | - | - |
| 1788061938 | 14.44° C | 100% | 1021.7 hPa | 0 mm | 0 m/s | - | - |
| 1788060738 | 14.44° C | 100% | 1021.7 hPa | 0 mm | 0 m/s | - | - |
| 1788060673 | 14.44° C | 100% | 1021.7 hPa | 0 mm | 0 m/s | - | - |
| 1788057139 | 15° C | 100% | 1021.8 hPa | 0 mm | 0 m/s | - | - |
* Rain latest hour (hover to see other rain measurements)
** Current wind speed in m/s (hover to see current wind gust speed)